Terug naar catalogus

DMSP 5D-2 F11 DEB

ActiefSSO
NORAD 28312·DEBRIS·🇺🇸 United States

Gelanceerd Nov 28, 1991 vanaf Vandenberg Space Force Base

Loading…

Volgende Passages (komende 24 uur)

TLE

VersSource: Space-Track

Epoch: Sep 13, 2026, 00:44 UTC

1 28312U 91082Z   26256.03074794  .00000554  00000-0  24934-3 0  9990
2 28312  98.6001 287.4830 0010407 206.3853 153.6799 14.26172167159757

Volg DMSP 5D-2 F11 DEB in realtime met AllMySat

Download on the App Store